Погода в Шилке

Россия / Забайкальский край     51°51′09″N   116°01′57″E
темп.,
°C
ветер,
м/с
пор.,
м/с
влажн.,
%
обл.,
%
осадки,
мм/ч
давл.,
гПа
погр.,
м
25 июля, вс
вс2500:00+13зсз2489100 0.0 1005146
03:00+14з1186100 0.0 100513
06:00+13з1188100 0.0 100516
09:00+17сз377173 0.0 1005804
12:00+19с566394 0.1 10051207
15:00+18с368296 0.8 1005824
18:00+18с47806 0.9 1005944
21:00+14с3790100 1.2 1007288
26 июля, пн
пн2600:00+13ссз2293100 0.0 100738
03:00+13ссв2890100 0.0 1007331
06:00+13с2489100 0.0 1007151
09:00+14ссз2487100 0.0 1008289
12:00+16с357781 0.0 1007737
15:00+17св468170 1.0 1007798
18:00+18ссв478995 1.7 1006884
21:00+15ссв229318 3.0 100726
27 июля, вт
вт2700:00+13ссв22968 0.1 100732
03:00+12ссз11965 0.1 100711
06:00+11ссв22965 0.0 100729
09:00+16ссв248849 0.0 1006451
12:00+19ссв3470100 0.0 1005983
15:00+19св347378 0.2 1004764
18:00+20св346992 0.0 1003862
21:00+17св118580 0.1 100415
28 июля, ср
ср2800:00+14св119371 0.0 100413
03:00+14св119776 0.1 100418
06:00+14св1298100 0.1 100464
09:00+16св1290100 0.1 1005220
12:00+21ссв216354 0.2 1003964
15:00+22ссз226385 0.7 10021055
18:00+22с116153 0.5 10011075
21:00+17ссв118610 0.6 100111
29 июля, чт
чт2900:00+15ююв01925 0.2 100211
03:00+14зюз00930 0.2 100111
06:00+13юв00950 0.0 100210
09:00+19сз11760 0.0 1001366
12:00+22зсз11668 0.8 10001032
15:00+25зсз23499 1.4 9991631
18:00+25зсз12510 0.0 9981139
21:00+19ююз117559 0.0 99911